カタリナ彗星

C/2013 US10 ( Catalina )

English version
Home page
Updated on October 8, 2017

---------------------------------------------------------------------

・ プロフィール

発見日 2013年10月31日
発見光度 18.6等
発見者 R. A. Kowalski (Catalina Sky Survey)

・ 写真集

・ 軌道要素

Epoch 2015 Dec. 4.0 TT = JDT 2457360.5
T 2015 Nov. 15.72132 TT                                 MPCW
q   0.8229672            (2000.0)            P               Q
z  -0.0003407      Peri.  340.35819     -0.90560045     -0.42050820
                   Node   186.14460     -0.28588009     +0.50883695
e   1.0002804      Incl.  148.87835     -0.31330559     +0.75117096
From 4817 observations 2013 Aug. 14-2017 Apr. 2, mean residual 0".5.
     Nongravitational parameters A1 = +0.85, A2 = -0.0116.

・ 星図

・ 光度変化

        m1 = 4.0 + 5 logΔ + 10.5 log r  [   ,-87]  (              〜2015年 8月20日)
        m1 = 5.3 + 5 logΔ +  5.0 log r  [-87,  0]  (2015年 8月20日〜2015年11月15日)
        m1 = 5.7 + 5 logΔ + 10.0 log r  [  0, 65]  (2015年11月15日〜2016年 1月19日)
        m1 = 8.0 + 5 logΔ -  5.0 log r  [ 65, 78]  (2016年 1月19日〜2016年 2月 1日)
        m1 = 5.0 + 5 logΔ + 10.0 log r  [ 78,   ]  (2016年 2月 1日〜              )

        ※ 灰色の曲線は、m1 = 4.0 + 5 logΔ + 10.5 log r の光度曲線です。

---------------------------------------------------------------------

軌道要素はM.P.E.C. 2017-J52に掲載されたものです。
星図はステラナビゲータ Ver.8 (アストロアーツ) で作成したものです。
光度グラフはComet for Windowsで作成したものです。

---------------------------------------------------------------------

Copyright(C) Seiichi Yoshida (comet@aerith.net). All rights reserved.